User: anonymous   Login
Location: *
(38.4303°S, 157.0822°W)
Time: 19:28:32
(UTC+00:00)
Language:

Meteor 1-31 Rocket - Orbit

View from above orbital plane
View from above orbital plane
View from above satellite
View from above satellite

Ground track
Ground track

The orbit data is extracted from the following two-line orbital elements,

1 12586U 81065B   24197.94842705  .00007477  00000-0  34268-3 0  9995
2 12586  97.6925 212.3399 0013961 321.5763  38.4476 15.20688525343103
Epoch (UTC): 15 July 2024 22:45:44
Eccentricity: 0.0013961
inclination: 97.6925°
perigee height: 494 km
apogee height: 513 km
right ascension of ascending node: 212.3399°
argument of perigee: 321.5763°
revolutions per day: 15.20688525
mean anomaly at epoch: 38.4476°
orbit number at epoch: 34310

The dashed part of the orbit path shows where the satellite is in the earth's shadow,  

DLR